GAOFEN 11 (43585 NORAD) Tracking and Keplerian Element Data

This shows tracking and keplerian element data for the satellite.

Feedback or suggestion? Click here.




ElementValue
Catalog43585
NameGAOFEN 11
Epoch Orbit4573
Epoch Day143.63996593
Epoch Year2019
RAAN223.6343
Inclination97.4092
Eccentricity0.0019142
Argument of Perigee143.694
Mean Anonmoly322.521
Mean Motion15.23513034
Decay Rate7.315E-05
L11 43585U 18063A 19143.63996593 .00007315 00000-0 30782-3 0 9990
L22 43585 97.4092 223.6343 0019142 143.6940 322.5210 15.23513034 45736

Live tracking and technical data element details for GAOFEN 11 (NORAD 43585). GAOFEN 11 can be tracked NOW for your location showing map with azimuth and elevation plus other details from your city location.

Track the satellite on the map from your city or location and see movement details for azimuth, elevation, latitude, longitude, range, height, and movement on the map or in text.







IsCatalogInMostPopularTable: catalog: 43585, numindb: 116
Update: records affected: 1



GetName: 43585 GAOFEN 11

Hit Count: updated at: Fri, 24 May 2019 20:47:41 GMT